When you browse on this site, cookies collect data to enhance your experience and personalize the content and advertising you see.
Visit our Privacy Policy to learn more. By continuing to use the site, you agree to this use of cookies and data.
  • En España
  • Lista de países
  • Para 7 días
  • Temperatura del agua
  • El tiempo en el mapa
  • Informadores
  • user-avatar
    Iniciar sesión

    Tiempo cada hora Mongu

    Hoy, 21 Octubre, Lunes

    Tiempo Temperatura Precipitaciones Viento Presión Humedad
    00:00 +26°C° 0 mm 1 mps 672 mmHg 14%
    01:00 +25°C° 0 mm 1 mps 672 mmHg 15%
    02:00 +24°C° 0 mm 2 mps 672 mmHg 16%
    03:00 +24°C° 0 mm 2 mps 672 mmHg 16%
    04:00 +24°C° 0 mm 2 mps 672 mmHg 16%
    05:00 +24°C° 0 mm 2 mps 672 mmHg 16%
    06:00 +25°C° 0 mm 2 mps 673 mmHg 17%
    07:00 +26°C° 0 mm 3 mps 674 mmHg 18%
    08:00 +28°C° 0 mm 3 mps 674 mmHg 19%
    09:00 +31°C° 0 mm 3 mps 675 mmHg 17%
    10:00 +35°C° 0 mm 3 mps 675 mmHg 16%
    11:00 +38°C° 0 mm 3 mps 675 mmHg 15%
    12:00 +40°C° 0 mm 3 mps 674 mmHg 12%
    13:00 +41°C° 0 mm 2 mps 673 mmHg 10%
    14:00 +42°C° 0 mm 2 mps 672 mmHg 8%
    15:00 +42°C° 0 mm 2 mps 672 mmHg 8%
    16:00 +41°C° 0 mm 1 mps 671 mmHg 7%
    17:00 +41°C° 0 mm 1 mps 671 mmHg 7%
    18:00 +36°C° 0 mm 1 mps 670 mmHg 9%
    19:00 +33°C° 0 mm 1 mps 670 mmHg 11%
    20:00 +28°C° 0 mm 0 mps 670 mmHg 13%
    21:00 +27°C° 0 mm 0 mps 670 mmHg 13%
    22:00 +27°C° 0 mm 0 mps 670 mmHg 14%
    23:00 +28°C° 0 mm 1 mps 671 mmHg 15%

    Mañana, 22 Octubre, Martes

    Tiempo Temperatura Precipitaciones Viento Presión Humedad
    00:00 +27°C° 0 mm 1 mps 670 mmHg 16%
    01:00 +27°C° 0 mm 1 mps 670 mmHg 16%
    02:00 +26°C° 0 mm 2 mps 670 mmHg 17%
    03:00 +26°C° 0 mm 2 mps 670 mmHg 17%
    04:00 +25°C° 0 mm 2 mps 670 mmHg 18%
    05:00 +25°C° 0 mm 2 mps 670 mmHg 19%
    06:00 +27°C° 0 mm 3 mps 671 mmHg 19%
    07:00 +28°C° 0 mm 3 mps 672 mmHg 19%
    08:00 +29°C° 0 mm 4 mps 672 mmHg 20%
    09:00 +34°C° 0 mm 4 mps 672 mmHg 18%
    10:00 +37°C° 0 mm 3 mps 672 mmHg 16%
    11:00 +40°C° 0 mm 3 mps 673 mmHg 14%
    12:00 +40°C° 0 mm 3 mps 672 mmHg 13%
    13:00 +40°C° 0 mm 2 mps 671 mmHg 12%
    14:00 +41°C° 0 mm 2 mps 670 mmHg 11%
    15:00 +41°C° 0 mm 2 mps 670 mmHg 11%
    16:00 +41°C° 0 mm 2 mps 669 mmHg 11%
    17:00 +41°C° 0 mm 2 mps 669 mmHg 11%
    18:00 +38°C° 0 mm 2 mps 669 mmHg 13%
    19:00 +35°C° 0 mm 2 mps 669 mmHg 16%
    20:00 +32°C° 0 mm 2 mps 669 mmHg 19%
    21:00 +31°C° 0 mm 2 mps 670 mmHg 21%
    22:00 +30°C° 0 mm 2 mps 670 mmHg 22%
    23:00 +29°C° 0 mm 2 mps 670 mmHg 24%

    Pasado mañana, 23 Octubre, Miércoles

    Tiempo Temperatura Precipitaciones Viento Presión Humedad
    00:00 +29°C° 0 mm 2 mps 670 mmHg 25%
    01:00 +28°C° 0 mm 2 mps 669 mmHg 27%
    02:00 +27°C° 0 mm 2 mps 669 mmHg 29%
    03:00 +26°C° 0 mm 2 mps 669 mmHg 33%
    04:00 +25°C° 0 mm 2 mps 669 mmHg 37%
    05:00 +25°C° 0 mm 2 mps 669 mmHg 41%
    06:00 +26°C° 0 mm 3 mps 670 mmHg 41%
    07:00 +28°C° 0 mm 3 mps 671 mmHg 40%
    08:00 +29°C° 0 mm 4 mps 672 mmHg 39%
    09:00 +33°C° 0 mm 4 mps 672 mmHg 34%
    10:00 +36°C° 0 mm 4 mps 672 mmHg 30%
    11:00 +38°C° 0 mm 3 mps 673 mmHg 25%
    12:00 +39°C° 0 mm 3 mps 672 mmHg 22%
    13:00 +40°C° 0 mm 3 mps 671 mmHg 19%
    14:00 +42°C° 0 mm 3 mps 671 mmHg 17%
    15:00 +40°C° 0 mm 3 mps 670 mmHg 18%
    16:00 +39°C° 0 mm 3 mps 670 mmHg 19%
    17:00 +37°C° 0 mm 4 mps 669 mmHg 20%
    18:00 +36°C° 0 mm 3 mps 669 mmHg 22%
    19:00 +34°C° 0 mm 2 mps 670 mmHg 24%
    20:00 +31°C° 0 mm 1 mps 670 mmHg 26%
    21:00 +30°C° 0 mm 2 mps 670 mmHg 32%
    22:00 +29°C° 0 mm 3 mps 671 mmHg 38%
    23:00 +28°C° 0 mm 3 mps 671 mmHg 44%

    24 Octubre, Jueves

    Tiempo Temperatura Precipitaciones Viento Presión Humedad
    00:00 +27°C° 0 mm 3 mps 671 mmHg 47%
    01:00 +27°C° 0 mm 2 mps 670 mmHg 51%
    02:00 +26°C° 0 mm 2 mps 670 mmHg 54%
    03:00 +25°C° 0 mm 2 mps 670 mmHg 56%
    04:00 +25°C° 0 mm 2 mps 670 mmHg 58%
    05:00 +24°C° 0 mm 2 mps 671 mmHg 60%
    06:00 +26°C° 0 mm 2 mps 671 mmHg 56%
    07:00 +27°C° 0 mm 2 mps 672 mmHg 51%
    08:00 +28°C° 0 mm 3 mps 673 mmHg 47%
    09:00 +31°C° 0 mm 2 mps 673 mmHg 39%
    10:00 +36°C° 0 mm 2 mps 674 mmHg 31%
    11:00 +39°C° 0 mm 2 mps 674 mmHg 24%
    12:00 +40°C° 0 mm 2 mps 674 mmHg 21%
    13:00 +41°C° 0 mm 2 mps 673 mmHg 18%
    14:00 +42°C° 0 mm 2 mps 672 mmHg 16%
    15:00 +41°C° 0 mm 2 mps 671 mmHg 16%
    16:00 +40°C° 0 mm 2 mps 671 mmHg 17%
    17:00 +39°C° 0 mm 2 mps 670 mmHg 18%
    18:00 +36°C° 0 mm 1 mps 670 mmHg 21%
    19:00 +34°C° 0 mm 1 mps 670 mmHg 24%
    20:00 +31°C° 0 mm 1 mps 670 mmHg 27%
    21:00 +30°C° 0.3 mm 1 mps 671 mmHg 31%
    22:00 +29°C° 0.3 mm 1 mps 671 mmHg 36%
    23:00 +29°C° 0.3 mm 1 mps 671 mmHg 40%

    25 Octubre, Viernes

    Tiempo Temperatura Precipitaciones Viento Presión Humedad
    00:00 +28°C° 0.2 mm 2 mps 671 mmHg 44%
    01:00 +27°C° 0.2 mm 3 mps 671 mmHg 48%
    02:00 +26°C° 0.2 mm 3 mps 671 mmHg 53%
    03:00 +26°C° 0 mm 3 mps 671 mmHg 55%
    04:00 +25°C° 0 mm 2 mps 672 mmHg 57%
    05:00 +25°C° 0 mm 2 mps 672 mmHg 60%
    06:00 +26°C° 0 mm 2 mps 672 mmHg 57%
    07:00 +27°C° 0 mm 3 mps 673 mmHg 53%
    08:00 +28°C° 0 mm 3 mps 674 mmHg 50%
    09:00 +31°C° 0 mm 3 mps 674 mmHg 43%
    10:00 +35°C° 0 mm 3 mps 674 mmHg 35%
    11:00 +37°C° 0 mm 3 mps 674 mmHg 28%
    12:00 +38°C° 0 mm 3 mps 674 mmHg 25%
    13:00 +40°C° 0 mm 2 mps 673 mmHg 22%
    14:00 +41°C° 0 mm 1 mps 672 mmHg 19%
    15:00 +39°C° 0.1 mm 2 mps 672 mmHg 23%
    16:00 +37°C° 0.1 mm 3 mps 671 mmHg 27%
    17:00 +35°C° 0.1 mm 3 mps 671 mmHg 32%
    18:00 +33°C° 0.2 mm 3 mps 671 mmHg 36%
    19:00 +31°C° 0.2 mm 2 mps 671 mmHg 41%
    20:00 +29°C° 0.2 mm 1 mps 672 mmHg 46%
    21:00 +29°C° 0 mm 1 mps 672 mmHg 48%
    22:00 +28°C° 0 mm 2 mps 672 mmHg 50%
    23:00 +28°C° 0 mm 2 mps 673 mmHg 51%

    26 Octubre, Sábado

    Tiempo Temperatura Precipitaciones Viento Presión Humedad
    00:00 +27°C° 0 mm 2 mps 672 mmHg 55%
    01:00 +26°C° 0 mm 2 mps 672 mmHg 58%
    02:00 +25°C° 0 mm 2 mps 671 mmHg 61%
    03:00 +25°C° 0 mm 2 mps 671 mmHg 63%
    04:00 +24°C° 0 mm 2 mps 671 mmHg 66%
    05:00 +24°C° 0 mm 2 mps 671 mmHg 68%
    06:00 +25°C° 0 mm 2 mps 672 mmHg 62%
    07:00 +27°C° 0 mm 2 mps 673 mmHg 56%
    08:00 +29°C° 0 mm 2 mps 673 mmHg 50%
    09:00 +32°C° 0 mm 1 mps 674 mmHg 41%
    10:00 +36°C° 0 mm 1 mps 674 mmHg 32%
    11:00 +41°C° 0 mm 1 mps 674 mmHg 23%
    12:00 +40°C° 0 mm 1 mps 673 mmHg 22%
    13:00 +40°C° 0 mm 1 mps 672 mmHg 21%
    14:00 +39°C° 0 mm 1 mps 671 mmHg 20%
    15:00 +37°C° 0 mm 1 mps 671 mmHg 22%
    16:00 +36°C° 0 mm 1 mps 670 mmHg 23%
    17:00 +35°C° 0 mm 1 mps 670 mmHg 25%
    18:00 +34°C° 0 mm 1 mps 670 mmHg 27%
    19:00 +32°C° 0 mm 1 mps 670 mmHg 30%
    20:00 +31°C° 0 mm 1 mps 670 mmHg 32%
    21:00 +30°C° 0 mm 1 mps 670 mmHg 34%
    22:00 +30°C° 0 mm 1 mps 670 mmHg 35%
    23:00 +29°C° 0 mm 1 mps 670 mmHg 37%

    27 Octubre, Domingo

    Tiempo Temperatura Precipitaciones Viento Presión Humedad
    00:00 +29°C° 0 mm 1 mps 670 mmHg 37%
    01:00 +29°C° 0 mm 1 mps 670 mmHg 37%
    02:00 +29°C° 0 mm 1 mps 670 mmHg 37%
    03:00 +29°C° 0 mm 1 mps 670 mmHg 39%
    04:00 +28°C° 0 mm 2 mps 670 mmHg 41%
    05:00 +27°C° 0 mm 2 mps 670 mmHg 42%
    06:00 +28°C° 0 mm 2 mps 671 mmHg 42%
    07:00 +30°C° 0 mm 3 mps 671 mmHg 42%
    08:00 +31°C° 0 mm 3 mps 672 mmHg 41%
    09:00 +34°C° 0 mm 3 mps 672 mmHg 35%
    10:00 +37°C° 0 mm 3 mps 672 mmHg 28%
    11:00 +40°C° 0 mm 3 mps 673 mmHg 21%
    12:00 +40°C° 0 mm 2 mps 672 mmHg 20%
    13:00 +40°C° 0 mm 2 mps 671 mmHg 19%
    14:00 +40°C° 0 mm 2 mps 671 mmHg 18%
    15:00 +40°C° 0 mm 2 mps 670 mmHg 17%
    16:00 +40°C° 0 mm 2 mps 670 mmHg 17%
    17:00 +40°C° 0 mm 1 mps 669 mmHg 17%
    18:00 +36°C° 0 mm 1 mps 669 mmHg 20%
    19:00 +34°C° 0 mm 1 mps 669 mmHg 23%
    20:00 +32°C° 0 mm 1 mps 669 mmHg 26%
    21:00 +31°C° 0 mm 1 mps 669 mmHg 27%
    22:00 +30°C° 0 mm 1 mps 670 mmHg 29%
    23:00 +30°C° 0 mm 2 mps 670 mmHg 31%
    Mostrar más